Other Public Products
Issued by NWS Charleston, SC

Home | Current Version | Previous Version | Text Only | Print | Product List | Glossary On
Versions: 1 2 3 4 5 6 7 8 9 10 11 12 13 14 15 16 17 18 19 20 21 22 23 24 25 26 27 28 29 30 31 32 33 34 35 36 37 38 39 40 41 42 43 44 45 46 47 48 49 50
000
FPUS82 KCHS 300027
OPUCHS

TEST...KCHS/KSAV Gateway Observations...TEST
National Weather Service Charleston SC
800 PM EDT SAT APR 29 2017

NOTE: "fair" indicates few or no clouds below 12,000 feet with no
significant weather and/or obstructions to visibility.

SCZ050-WAZ558-NCZ071-TXZ119-213-PAZ071-DCZ001-FLZ074-172-MI076-
NYZ176-178-MAZ016-IL014-TNZ027-NJZ106-GAZ044-MD014-300100-

...Gateway Observations for Charleston International...

CITY           SKY/WX    TMP DP  RH WIND       PRES   REMARKS
Chas Airport   MOCLDY    76  69  79 S10       30.17F
6HR MIN TEMP:  76; 6HR MAX TEMP:  86;

Seattle        CLOUDY    57  41  55 SW9G17    30.15F
6HR MIN TEMP:  50; 6HR MAX TEMP:  57;

Charlotte      MOCLDY    79  68  69 S7        30.14R
6HR MIN TEMP:  79; 6HR MAX TEMP:  86;

Dallas DFW     CLOUDY    61  53  75 NW28G33   29.60R
6HR MIN TEMP:  61; 6HR MAX TEMP:  91;

Dallas Love    TSTM      61  54  77 NW21G26   29.63R
6HR MIN TEMP:  63; 6HR MAX TEMP:  90; 6HR PCP: TRACE;

Philladelphia  CLOUDY    83  60  45 W6        30.04R
6HR MIN TEMP:  83; 6HR MAX TEMP:  88;

Wash National  CLOUDY    81  70  69 S7        30.04R
6HR MIN TEMP:  81; 6HR MAX TEMP:  91;

Baltimore      CLOUDY    83  66  56 CALM      30.04R
6HR MIN TEMP:  81; 6HR MAX TEMP:  89;

Miami          MOCLDY    81  70  69 E16       30.08R
6HR MIN TEMP:  81; 6HR MAX TEMP:  88;

Detroit        CLOUDY    47  33  58 NE12      30.21S
6HR MIN TEMP:  47; 6HR MAX TEMP:  50;

Newark         MOCLDY    79  58  48 W14       30.00R
6HR MIN TEMP:  79; 6HR MAX TEMP:  86;

Laguardia      MOCLDY    81  56  42 W13G21    29.99R
6HR MIN TEMP:  81; 6HR MAX TEMP:  88;

J F K          MOCLDY    80  59  48 W15       30.01R
6HR MIN TEMP:  79; 6HR MAX TEMP:  85;

Boston Logan   MOCLDY    75  50  41 NW15G23   29.90R
6HR MIN TEMP:  74; 6HR MAX TEMP:  84;

Ft. Lauderdale MOCLDY    79  71  76 E16       30.08S
6HR MIN TEMP:  79; 6HR MAX TEMP:  86;

Chicago O`Hare HVY RAIN  41  38  89 NE20G28   30.11S FOG
6HR MIN TEMP:  40; 6HR MAX TEMP:  42; 6HR PCP:  0.75;

Chicago Midway RAIN      42  41  96 NE21G35   30.09F FOG
6HR MIN TEMP:  41; 6HR MAX TEMP:  43; 6HR PCP:  1.01;

Houston Bush   CLOUDY    82  73  74 S22G32    29.59F HAZE
6HR MIN TEMP:  82; 6HR MAX TEMP:  84; 6HR PCP: TRACE;

Houston Hobby  PTSUNNY   81  74  79 S23G36    29.60S
6HR MIN TEMP:  81; 6HR MAX TEMP:  82;

Nashville      CLOUDY    85  64  49 S14G23    29.94S
6HR MIN TEMP:  85; 6HR MAX TEMP:  91;

Atlanta        MOCLDY    83  65  54 S10       30.07S
6HR MIN TEMP:  83; 6HR MAX TEMP:  87;


$$

GAZ044-118-TXZ119-213-NCZ071-DCZ001-MDZ014-506-PAZ021-071-NJZ106-
NYZ176-178-MAZ106-OHZ011-021-055-MIZ076-KYZ091-ILZ014-INZ047-
MNZ060-ONZ431-300100-

...Gateway Observations for Savannah International...

CITY           SKY/WX    TMP DP  RH WIND       PRES   REMARKS
Savannah Arpt  CLOUDY    78  67  68 S16       30.15S
6HR MIN TEMP:  78; 6HR MAX TEMP:  87;

Atlanta        MOCLDY    83  65  54 S10       30.07S
6HR MIN TEMP:  83; 6HR MAX TEMP:  87;

Charlotte      MOCLDY    79  68  69 S7        30.14R
6HR MIN TEMP:  79; 6HR MAX TEMP:  86;

Dallas DFW     CLOUDY    61  53  75 NW28G33   29.60R
6HR MIN TEMP:  61; 6HR MAX TEMP:  91;

Houston Bush   CLOUDY    82  73  74 S22G32    29.59F HAZE
6HR MIN TEMP:  82; 6HR MAX TEMP:  84; 6HR PCP: TRACE;

Wash National  CLOUDY    81  70  69 S7        30.04R
6HR MIN TEMP:  81; 6HR MAX TEMP:  91;

Wash Dulles    CLOUDY    81  68  64 S5        30.05R
6HR MIN TEMP:  79; 6HR MAX TEMP:  89;

Baltimore      CLOUDY    83  66  56 CALM      30.04R
6HR MIN TEMP:  81; 6HR MAX TEMP:  89;

Philadelphia   CLOUDY    83  60  45 W6        30.04R
6HR MIN TEMP:  83; 6HR MAX TEMP:  88;

Newark         MOCLDY    79  58  48 W14       30.00R
6HR MIN TEMP:  79; 6HR MAX TEMP:  86;

Laguardia      MOCLDY    81  56  42 W13G21    29.99R
6HR MIN TEMP:  81; 6HR MAX TEMP:  88;

J F K          MOCLDY    80  59  48 W15       30.01R
6HR MIN TEMP:  79; 6HR MAX TEMP:  85;

Boston         MOCLDY    75  50  41 NW15G23   29.90R
6HR MIN TEMP:  74; 6HR MAX TEMP:  84;

Pittsburg      CLOUDY    62  60  93 N12       30.12R
6HR MIN TEMP:  62; 6HR MAX TEMP:  74; 6HR PCP:  0.01;

Akron          CLOUDY    52  48  86 NE13      30.15S FOG
6HR MIN TEMP:  51; 6HR MAX TEMP:  59; 6HR PCP: TRACE;

Cleveland      CLOUDY    48  39  71 NE13      30.21F
6HR MIN TEMP:  47; 6HR MAX TEMP:  50; 6HR PCP:  0.01;

Cincinnati     MOCLDY    77  66  68 E9        29.94F
6HR MIN TEMP:  73; 6HR MAX TEMP:  80;

Columbus       CLEAR     69  65  87 NE7       30.02R
Detroit        CLOUDY    47  33  58 NE12      30.21S
6HR MIN TEMP:  47; 6HR MAX TEMP:  50;

Chicago O`Hare HVY RAIN  41  38  89 NE20G28   30.11S FOG
6HR MIN TEMP:  40; 6HR MAX TEMP:  42; 6HR PCP:  0.75;

Minneapolis    CLOUDY    54  21  27 NE22G28   30.11F
6HR MIN TEMP:  51; 6HR MAX TEMP:  56;

Indianapolis   CLOUDY    66  62  87 NE17      29.91R
6HR MIN TEMP:  66; 6HR MAX TEMP:  74;

Toronto Canada CLOUDY    48  28  46 N15       30.21R

$$




USA.gov is the U.S. government's official web portal to all federal, state and local government web resources and services.